sat.trackr.live / text

‹ back to catalog

STARLINK-32414

NORAD 61667 · 2024-193G

PAYLOAD ACTIVE UNKNOWN

§ Identity

Operator
Country
US
Launch date
2024-10-26
Launch site
AFETR
Launch vehicle
Mass (kg)
RCS (m²)

Purposes: comms

External: N2YO · Heavens-Above · Gunter

§ Orbital elements

Epoch: 2026-05-25T02:34:07.538016Z

Period
94.11 min
Inclination
53.1607°
Eccentricity
0.0001166
Mean motion
15.30189500 rev/d
Perigee alt
474.4 km
Apogee alt
476.0 km
Semi-major
6,853.4 km
B*
1.5486e-7
RAAN
96.2558°
Arg perigee
101.3595°
Mean anomaly
258.7537°
Rev number
8,822

§ Raw data

STARLINK-324141 61667U 24193G   26145.10703169 -.00000354  00000+0  15486-6 0  99922 61667  53.1607  96.2558 0001166 101.3595 258.7537 15.30189500 88222

JSON: /api/v1/satellites/61667 · /tle

For live sub-satellite position, see the globe view (requires WebGL).

§ Visibility from observer

Set your observer location to see the next 7 days of passes ≥ 10°. The values pass through the URL so the page stays shareable.

No JS? Fill the form by hand. The geolocation button needs JavaScript.